Location: Medlow Airstrip Trail, Medlow Bath NSW 2780, Australia
(33.6682°S, 150.3233°E)
Time: 21:41:55
(UTC+11:00)

N. Korean satellite - Visible Passes

Search period start: 22 March 2019 00:00
Search period end: 01 April 2019 00:00
Orbit: 456 x 510 km, 97.2° (Epoch: 21 March)

Date Brightness Start Highest point End Pass type
(mag) Time Alt. Az. Time Alt. Az. Time Alt. Az.
22 Mar 6.6 06:34:27 10° N 06:38:09 70° W 06:41:57 10° SSW visible
22 Mar 8.9 19:38:52 10° SSW 19:42:05 29° WSW 19:45:13 10° NW visible
23 Mar 7.7 06:09:47 10° NNE 06:13:23 50° ESE 06:17:06 10° S visible
24 Mar 9.3 05:45:42 10° NE 05:48:43 23° ESE 05:51:47 10° SSE visible
25 Mar 10.2 05:22:45 10° E 05:24:09 12° ESE 05:25:32 10° SE visible
25 Mar 9.8 19:58:31 10° SSW 20:00:53 17° WSW 20:03:13 10° WNW visible
26 Mar 6.7 06:28:34 10° N 06:32:19 85° W 06:36:08 10° SSW visible
26 Mar 8.5 19:32:55 10° S 19:36:15 34° WSW 19:39:29 10° NW visible
27 Mar 8.1 06:04:02 10° NE 06:07:34 42° ESE 06:11:10 10° S visible
28 Mar 9.5 05:40:07 10° ENE 05:42:55 20° ESE 05:45:44 10° SSE visible
29 Mar 9.6 19:52:24 10° SSW 19:55:01 19° WSW 19:57:36 10° WNW visible
30 Mar 6.8 06:22:41 10° NNE 06:26:27 80° ESE 06:30:15 10° S visible
30 Mar 8.1 19:26:57 10° S 19:30:21 41° WSW 19:33:40 10° NW visible
31 Mar 8.5 05:58:16 10° NE 06:01:42 35° ESE 06:05:11 10° S visible
